This is the latest recevied weather packets stored in our database for station/object KF6RAL-6. If no packets are shown the sender has not sent any weather packets the latest 10 day(s).
| Time | Temp. | Humidity | Pressure | Rain* | Wind** | Luminosity | Snow |
|---|---|---|---|---|---|---|---|
| 1787905261 | 24.44° C | 53% | 1016.7 hPa | 0 mm | - | - | - |
| 1787904840 | 23.89° C | 53% | 1016.6 hPa | 0 mm | - | - | - |
| 1787904419 | 23.89° C | 52% | 1016.6 hPa | 0 mm | - | - | - |
| 1787903998 | 23.89° C | 52% | 1016.5 hPa | 0 mm | - | - | - |
| 1787903577 | 23.89° C | 55% | 1016.1 hPa | 0 mm | - | - | - |
| 1787903156 | 23.89° C | 51% | 1016 hPa | 0 mm | - | - | - |
| 1787902735 | 23.89° C | 53% | 1016 hPa | 0 mm | - | - | - |
| 1787902314 | 24.44° C | 54% | 1016 hPa | 0 mm | - | - | - |
| 1787901893 | 24.44° C | 53% | 1016.6 hPa | 0 mm | - | - | - |
| 1787901472 | 24.44° C | 54% | 1016.7 hPa | 0 mm | - | - | - |
| 1787901051 | 24.44° C | 52% | 1016.7 hPa | 0 mm | - | - | - |
| 1787900631 | 24.44° C | 51% | 1016.8 hPa | 0 mm | - | - | - |
| 1787900209 | 24.44° C | 49% | 1016.8 hPa | 0 mm | - | - | - |
| 1787899788 | 25.56° C | 46% | 1016.4 hPa | 0 mm | - | - | - |
| 1787899367 | 26.11° C | 42% | 1016.5 hPa | 0 mm | - | - | - |
| 1787898947 | 25.56° C | 45% | 1016.4 hPa | 0 mm | - | - | - |
| 1787898525 | 26.11° C | 45% | 1016.7 hPa | 0 mm | - | - | - |
| 1787898104 | 25.56° C | 45% | 1016.5 hPa | 0 mm | - | - | - |
| 1787897683 | 26.11° C | 45% | 1016.8 hPa | 0 mm | - | - | - |
| 1787897262 | 26.11° C | 45% | 1017 hPa | 0 mm | - | - | - |
| 1787896841 | 26.11° C | 45% | 1016.9 hPa | 0 mm | - | - | - |
| 1787896000 | 25.56° C | 47% | 1016.9 hPa | 0 mm | - | - | - |
| 1787895578 | 25.56° C | 47% | 1017 hPa | 0 mm | - | - | - |
| 1787895157 | 25.56° C | 49% | 1017.1 hPa | 0 mm | - | - | - |
| 1787894735 | 25.56° C | 47% | 1017.2 hPa | 0 mm | - | - | - |
* Rain latest hour (hover to see other rain measurements)
** Current wind speed in m/s (hover to see current wind gust speed)